Showing default

QIANFAN-66, 62796

Orbit data source: Space-Track

QIANFAN-66, 62796 is a Chinese payload satellite in LEO that was launched on Thu, 23 Jan 2025 UTC via a CHANG ZHENG 6A launch vehicle from the Taiyaun Space Center, China (TSC). Payload-class satellites include a variety of spacecraft equipped with specific instruments for various scientific and technological missions. These include communications satellites like Starlink; space stations such as the ISS; scientific satellites like the Hubble; Earth observation satellites from companies like Planet Labs, Umbra, and HawkEye 360; GPS; miniature CubeSats for education and research; and military/defense satellites.

Loading next visibility...
Identifier
62796, 2025-016M
Orbit
LEO
Country
Flag of CNCN / PRC
Related business
Manufacturer
SECM
Mission
Operational Commercial Communications
Bus & Motor
QIANFAN, Unknown motor
Mass
267 kg wet, ~267 kg dry
Launch date (UTC)
2025-01-23 (2 years ago)
Launch vehicle
CHANG ZHENG 6A
Launch site
Taiyaun Space Center, China (TSC)
Object type
Payload
Rocket body
Debris
Shape & HBR
Box + 1 Pan, 5.0 m
Radar Cross Section
13.200 m², Large (>1 m²)

Expand to show TLE details & history
Last TLE update: 9 hours ago

TLE from 9 hours ago
0 QIANFAN-66
1 62796U 25016M   26257.56965976  .00000038  00000-0  40612-4 0  9997
2 62796  88.9671  74.4009 0013168 261.0434  98.9226 13.51019553 84533
Epoch: 2026-09-14T13:40Z
TLE epoch observation values (Epoch: 2026-09-14T13:40:18.603Z)
Latitude
-0.00008°
Longitude
-124.22468°
Altitude
1,072.997 km
Speed
7.315 km/s
True Right ascension
04h 57m 36s
True Declination
0° 00' 00"
Sunlit
Object was in daylight at epoch
Visualization orbit readout
Latitude
Unknown
Longitude
Unknown
Altitude
Unknown
Speed
Unknown
Apparent Right ascension
Unknown
Apparent Declination
Unknown
Sunlit
N/A
Visualization observer readout
Local Sidereal Time
15:36:29
Azimuth
Unknown
Elevation
Unknown
Doppler factor
Unknown
Orbital elements
Apogee altitude
1,075.363 km
Perigee altitude
1,055.759 km
Semi-major axis
7,443.698 km
Eccentricity
0.00132
Inclination
88.9671°
RAAN
74.4009°
Arg. of periapsis
261.0434°
True anomaly
99.07163°
Mean anomaly
98.9226°
Eccentric anomaly
98.99712°
Mean motion
3.37956 °/min
Orbital period
106.52 mins
BSTAR
0.000040612
Loading maneuver chart data...
Computing Atmospheric mass density...
Loading historical data...
Loading historical data...
Loading historical data...
Loading historical data...
Loading historical data...
Loading historical data...
Loading historical data...

Documentation

Showing up to 5 results
|